[[{"header":{"parameterUnit":"m.s-1","parameterCategory":2,"la1":30.2991,"la2":30.254,"lo1":-89.0895,"lo2":-89.0444,"dy":0.0017,"dx":0.0017,"nx":28,"ny":28,"refTime":"2025-06-09T03:00:00:Z","depth":"0","parameterNumber":2,"parameterNumberName":"U-component_of_CURRENTS"},"data":[0,0,0,0,0,0,0,0,0,0,0,0,0,0,0,0,0,0,0,0,0,0,0,0,0,0,0,0,0,0,0,0,0,0,0,0,0,0,0,0,0,0,0,0,0,0,0,0,0,0,0,0,0,0,0,0,0,0,0.3983,0.3984,0,0.4066,0.4067,0.4069,0.4056,0.4055,0.4053,0.4051,0.4112,0.4115,0.4118,0,0,0,0,0,0,0,0,0,0,0,0,0,0.3823,0.3826,0.3983,0.3984,0.3985,0.4066,0.4067,0.4069,0.4057,0.4055,0.4053,0.4051,0.4111,0.4114,0.4118,0,0,0,0,0,0,0,0,0,0,0,0,0,0.39,0.3827,0.3983,0.3986,0.3987,0.4066,0.4068,0.4069,0.4057,0.4055,0.4052,0.405,0.4109,0.4114,0.4119,0.4198,0,0,0.4133,0.4135,0,0,0,0,0,0,0,0,0.3896,0.3907,0.3985,0.3986,0.3987,0.4046,0.4033,0.411,0.4058,0.4033,0.4051,0.4049,0.4088,0.4094,0.4119,0.42,0.4203,0.4134,0.4136,0.4138,0.414,0,0,0,0,0,0,0,0.389,0.3903,0.4019,0.3986,0.3987,0.3986,0.3995,0.4048,0.4075,0.4035,0.4034,0.404,0.4088,0.4115,0.4121,0.4204,0.4133,0.4138,0.4141,0.4142,0.4364,0.4366,0,0,0,0,0,0,0.3878,0.3898,0.4016,0.4021,0.3931,0.3991,0.4001,0.4032,0.4075,0.4079,0.4042,0.4039,0.4108,0.4115,0.4123,0.4216,0.4138,0.4143,0.4146,0.4361,0.4364,0.4368,0,0,0,0,0,0,0.3875,0.3889,0.4013,0.3957,0.3972,0.3996,0.4031,0.4035,0.4058,0.408,0.4083,0.4059,0.4106,0.4116,0.4183,0.4218,0.4145,0.4149,0.4357,0.4362,0.4366,0.4405,0,0,0,0,0,0,0.387,0.3888,0.3912,0.3958,0.3975,0.4079,0.4034,0.4038,0.4064,0.4061,0.4097,0.41,0.4105,0.4176,0.4187,0.4223,0.4153,0.4353,0.4359,0.4364,0.44,0.441,0.4419,0,0,0,0,0,0.3865,0.3923,0.3913,0.3927,0.4006,0.4081,0.4092,0.41,0.4067,0.4105,0.4119,0.4098,0.4219,0.4183,0.4195,0.4233,0.435,0.4357,0.4364,0.4395,0.4408,0.4419,0,0,0,0,0,0,0.3884,0.3928,0.3918,0.399,0.4032,0.4078,0.4113,0.4109,0.4153,0.4142,0.4144,0.4152,0.4232,0.4236,0.4195,0.4318,0.428,0.429,0.43,0.4312,0.4322,0.4355,0.4157,0,0,0,0,0,0.3894,0.3938,0.398,0.4038,0.4057,0.4081,0.4109,0.4118,0.4155,0.417,0.4188,0.4218,0.4276,0.4291,0.435,0.4413,0.4448,0.4447,0.4457,0.4465,0.4504,0.4577,0.4596,0.439,0.439,0.439,0,0,0.3915,0.3945,0.397,0.4042,0.4068,0.4119,0.4094,0.415,0.4189,0.4173,0.4234,0.4268,0.4309,0.4386,0.4419,0.4383,0.4544,0.4473,0.4479,0.4515,0.4586,0.4606,0.4624,0.4395,0.4394,0.4393,0,0,0.3978,0.4008,0.4056,0.4093,0.4138,0.4161,0.4175,0.4224,0.4243,0.4312,0.4313,0.4378,0.4438,0.4486,0.4513,0.462,0.461,0.4616,0.4671,0.474,0.4757,0.4773,0.4844,0.4865,0.4598,0.4598,0.4598,0,0.3993,0.406,0.4086,0.4137,0.4158,0.4177,0.4223,0.427,0.4331,0.4354,0.4338,0.4466,0.4501,0.46,0.4638,0.4644,0.4671,0.4611,0.4751,0.4767,0.4782,0.4851,0.4874,0.4601,0.4601,0.4601,0.46,0,0.4087,0.4129,0.4167,0.422,0.4257,0.4311,0.4352,0.4395,0.4403,0.4437,0.4539,0.4602,0.4668,0.469,0.47,0.4822,0.4804,0.4766,0.4712,0.4805,0.4872,0.4895,0.4605,0.4604,0.4603,0.4603,0,0,0.4137,0.4211,0.4218,0.4224,0.4295,0.4325,0.4401,0.4468,0.4493,0.4579,0.4636,0.4767,0.4785,0.4824,0.4843,0.4911,0.5048,0.4882,0.4884,0.4938,0.5202,0.5122,0.5139,0.5009,0.5014,0.5017,0.5204,0,0.4189,0.4265,0.4297,0.4351,0.438,0.4407,0.446,0.4518,0.4567,0.4636,0.4732,0.4805,0.4837,0.4857,0.4949,0.5035,0.5112,0.5003,0.5119,0.5124,0.5028,0.5165,0.4876,0.5012,0.5227,0.523,0.5233,0,0.4262,0.4291,0.4347,0.4365,0.4378,0.4412,0.4455,0.4509,0.462,0.4657,0.4767,0.4831,0.5,0.4974,0.5209,0.5127,0.519,0.5244,0.525,0.5186,0.5088,0.4957,0.5046,0.4867,0.5269,0.5266,0.5264,0,0.4254,0.4316,0.4342,0.4359,0.4403,0.4414,0.4434,0.4512,0.4548,0.4674,0.4718,0.4906,0.4995,0.5141,0.5298,0.5248,0.5526,0.5454,0.5448,0.5442,0.5233,0.5201,0.5152,0.561,0.561,0.5609,0.5609,0,0.4294,0.4309,0.4328,0.4343,0.4345,0.4378,0.4401,0.4447,0.4531,0.4587,0.4723,0.4814,0.5036,0.5213,0.5338,0.55,0.5567,0.5518,0.5504,0.5238,0.5206,0.5067,0.5029,0.5616,0.5615,0.5613,0.5612,0,0.4294,0.4319,0.4331,0.4348,0.4345,0.4339,0.4359,0.4379,0.4459,0.4544,0.4587,0.479,0.5001,0.5215,0.5458,0.5528,0.553,0.5706,0.5391,0.5336,0.5122,0.5099,0.501,0.4885,0.5736,0.5735,0.5734,0,0.4312,0.4321,0.4313,0.4296,0.43,0.4293,0.4289,0.4342,0.4366,0.4526,0.4567,0.4784,0.4906,0.5254,0.5403,0.5609,0.5478,0.5463,0.5325,0.5122,0.5087,0.4936,0.4826,0.5068,0.5062,0.5057,0.5053,0,0.4313,0.4301,0.429,0.4262,0.424,0.4215,0.4213,0.4214,0.429,0.4362,0.4467,0.4572,0.4852,0.4935,0.5198,0.5289,0.5165,0.5368,0.5228,0.4651,0.4415,0.4279,0.4948,0.501,0.5014,0.5017,0.502,0.5021,0.428,0.4259,0.4229,0.4188,0.4164,0.4104,0.4025,0.4051,0.4056,0.4078,0.4297,0.4323,0.4504,0.48,0.4883,0.4789,0.4872,0.4655,0.4679,0.4571,0.4333,0.493,0.4922,0.4926,0.4929,0.4932,0.4934,0,0.4191,0.4169,0.4152,0.406,0.3977,0.3999,0.3936,0.3822,0.3757,0.3845,0.3904,0.3951,0.4014,0.4146,0.4221,0.4121,0.3958,0.4022,0.3705,0.3662,0.4233,0.4078,0.3798,0.3798,0.3798,0.3798,0.3798,0.3799,0.4133,0.4061,0.4046,0.3872,0.3806,0.3612,0.3528,0.3417,0.3389,0.3288,0.3247,0.3362,0.3593,0.3733,0.3637,0.356,0.333,0.3179,0.3278,0.3617,0.3675,0.3729,0.3568,0.3186,0.3186,0.2462,0.2457,0.2453]},{"header":{"parameterUnit":"m.s-1","parameterCategory":2,"la1":30.2991,"la2":30.254,"lo1":-89.0895,"lo2":-89.0444,"dy":0.0017,"dx":0.0017,"nx":28,"ny":28,"refTime":"2025-06-09T03:00:00:Z","depth":"0","parameterNumber":3,"parameterNumberName":"V-component_of_CURRENTS"},"data":[0,0,0,0,0,0,0,0,0,0,0,0,0,0,0,0,0,0,0,0,0,0,0,0,0,0,0,0,0,0,0,0,0,0,0,0,0,0,0,0,0,0,0,0,0,0,0,0,0,0,0,0,0,0,0,0,0,0,0.0312,0.0311,0,0.0245,0.0245,0.0244,0.0139,0.0137,0.0135,0.0133,0.0047,0.0047,0.0047,0,0,0,0,0,0,0,0,0,0,0,0,0,0.0354,0.0354,0.0312,0.0311,0.031,0.0246,0.0245,0.0244,0.014,0.0137,0.0135,0.0132,0.0047,0.0047,0.0047,0,0,0,0,0,0,0,0,0,0,0,0,0,0.0319,0.0354,0.0312,0.0249,0.0242,0.0246,0.0245,0.0244,0.014,0.0137,0.0134,0.0131,0.0048,0.0047,0.0047,0.0106,0,0,0.0045,0.0045,0,0,0,0,0,0,0,0,0.0321,0.0318,0.0259,0.0253,0.0246,0.0196,0.0228,0.0196,0.0141,0.0181,0.0133,0.0129,0.0096,0.0091,0.0089,0.0102,0.0099,0.0045,0.0045,0.0044,0.0044,0,0,0,0,0,0,0,0.0324,0.032,0.0288,0.0258,0.025,0.0225,0.0217,0.0222,0.0158,0.0177,0.0169,0.0159,0.0092,0.009,0.0086,0.0097,0.0045,0.0045,0.0044,0.0044,0.0138,0.014,0,0,0,0,0,0,0.0331,0.0323,0.029,0.0286,0.0274,0.0227,0.0217,0.0217,0.0158,0.0146,0.0162,0.0155,0.0092,0.0087,0.0083,0.0148,0.0044,0.0044,0.0044,0.0135,0.0138,0.0141,0,0,0,0,0,0,0.0332,0.0329,0.0292,0.03,0.0293,0.0229,0.0229,0.0217,0.0211,0.0147,0.0133,0.0167,0.009,0.0083,0.0093,0.0143,0.0044,0.0043,0.0132,0.0136,0.014,0.028,0,0,0,0,0,0,0.0334,0.0331,0.0345,0.0301,0.0293,0.0308,0.0231,0.0218,0.0208,0.0198,0.0148,0.0136,0.0087,0.0095,0.0093,0.0141,0.0043,0.0128,0.0134,0.0138,0.0271,0.0288,0.0302,0,0,0,0,0,0.0336,0.0379,0.0347,0.0343,0.0311,0.031,0.0305,0.0249,0.0212,0.0229,0.0189,0.0137,0.0126,0.0097,0.0094,0.0143,0.0126,0.0132,0.0138,0.0264,0.0285,0.0302,0,0,0,0,0,0,0.042,0.0371,0.0334,0.0363,0.0338,0.0291,0.0305,0.0269,0.0254,0.0243,0.0175,0.0164,0.0189,0.0158,0.0127,0.0187,0.0118,0.0124,0.0215,0.0234,0.0249,0.0292,0.0043,0,0,0,0,0,0.0443,0.0453,0.0402,0.0428,0.0417,0.0365,0.036,0.0324,0.0297,0.0286,0.0252,0.0224,0.022,0.0216,0.0204,0.0248,0.0219,0.0278,0.0293,0.0306,0.0341,0.0334,0.0352,0.0162,0.0162,0.0162,0,0,0.0485,0.0459,0.0465,0.0445,0.0419,0.0432,0.0356,0.0361,0.0381,0.0285,0.0314,0.0279,0.0243,0.0277,0.0288,0.0253,0.0346,0.0314,0.0326,0.0354,0.0342,0.0361,0.0377,0.0166,0.0165,0.0165,0,0,0.0562,0.0547,0.0566,0.0557,0.0524,0.0501,0.0507,0.047,0.0461,0.0485,0.0421,0.0426,0.0415,0.0403,0.0394,0.0499,0.0426,0.0487,0.0604,0.0596,0.0612,0.0625,0.0613,0.0624,0.0497,0.0497,0.0497,0,0.0604,0.0623,0.0579,0.0596,0.0602,0.0538,0.0571,0.0569,0.0545,0.0564,0.0512,0.0528,0.0484,0.0541,0.0563,0.0536,0.0511,0.0531,0.0616,0.0628,0.0639,0.0624,0.0634,0.0505,0.0504,0.0503,0.0502,0,0.0678,0.07,0.0722,0.0714,0.0727,0.0752,0.073,0.0753,0.0733,0.0724,0.0772,0.0725,0.0734,0.072,0.067,0.0742,0.0692,0.0631,0.0567,0.0667,0.0644,0.0652,0.0515,0.0513,0.0511,0.0509,0,0,0.0737,0.0763,0.0768,0.0788,0.079,0.0808,0.0869,0.0902,0.0954,0.094,0.1016,0.1001,0.0971,0.0963,0.0906,0.0901,0.0942,0.0809,0.0805,0.0796,0.0924,0.0871,0.0874,0.0884,0.0887,0.0888,0.0876,0,0.0795,0.0854,0.0859,0.0938,0.0965,0.0962,0.1029,0.106,0.1077,0.1141,0.1121,0.1158,0.1065,0.1072,0.1062,0.0981,0.0971,0.0951,0.0832,0.0829,0.0768,0.0885,0.079,0.0771,0.0884,0.0885,0.0886,0,0.0845,0.0881,0.0958,0.1042,0.1057,0.1106,0.1201,0.1252,0.1326,0.1345,0.1389,0.1363,0.1396,0.1277,0.1222,0.121,0.1092,0.101,0.1006,0.092,0.0793,0.069,0.078,0.0576,0.0898,0.0897,0.0896,0,0.0873,0.0955,0.1021,0.1044,0.1125,0.1182,0.1233,0.1313,0.138,0.1477,0.1537,0.1558,0.1572,0.147,0.1319,0.1268,0.1234,0.1131,0.0976,0.0969,0.0852,0.0832,0.0733,0.1081,0.1081,0.1081,0.1081,0,0.092,0.0977,0.1041,0.1074,0.1182,0.1227,0.1351,0.1409,0.1521,0.163,0.1638,0.1723,0.1615,0.1579,0.141,0.1253,0.1304,0.104,0.0982,0.0898,0.0883,0.0667,0.0566,0.108,0.108,0.108,0.108,0,0.0932,0.0972,0.105,0.1148,0.1188,0.126,0.1405,0.1503,0.1596,0.1744,0.1785,0.1858,0.1826,0.1699,0.1545,0.1368,0.1085,0.112,0.1038,0.0971,0.0623,0.0535,0.0417,0.0335,0.0966,0.0965,0.0964,0,0.0947,0.0981,0.1083,0.1142,0.1188,0.1303,0.1398,0.1519,0.1631,0.1822,0.1906,0.1946,0.1984,0.1783,0.1501,0.1249,0.1047,0.096,0.0845,0.0639,0.0496,0.0437,0.0373,0.0738,0.0735,0.0733,0.0731,0,0.0971,0.0992,0.1052,0.1167,0.1266,0.1394,0.1537,0.1636,0.1802,0.1941,0.2109,0.2159,0.1984,0.1732,0.1398,0.1182,0.0804,0.0905,0.0709,0.0354,0.0267,0.0146,0.0708,0.0711,0.0713,0.0715,0.0716,0.0717,0.098,0.1018,0.1093,0.1209,0.1325,0.1484,0.1597,0.1767,0.1957,0.2182,0.2226,0.2301,0.1907,0.1458,0.1179,0.058,0.0645,0.0353,0.0277,0.0249,0.0135,0.0671,0.0593,0.0594,0.0595,0.0596,0.0597,0,0.1003,0.1051,0.1148,0.1288,0.1416,0.1483,0.1698,0.1829,0.2052,0.2229,0.2373,0.2168,0.1664,0.116,0.0402,0.0016,-0.012,-0.0192,-0.0323,-0.0347,0.0126,0.0078,-0.0137,-0.0136,-0.0136,-0.0136,-0.0136,-0.0136,0.102,0.109,0.1143,0.1342,0.1448,0.1627,0.1748,0.1948,0.2101,0.2277,0.2292,0.2324,0.1904,0.056,-0.0335,-0.0533,-0.0773,-0.0848,-0.0896,-0.0631,-0.0587,-0.0545,-0.0615,-0.0971,-0.0972,-0.1373,-0.1378,-0.1381]}],[{"header":{"parameterUnit":"m.s-1","parameterCategory":2,"la1":30.2991,"la2":30.254,"lo1":-89.0895,"lo2":-89.0444,"dy":0.0017,"dx":0.0017,"nx":28,"ny":28,"refTime":"2025-06-09T03:00:00:Z","depth":"2","parameterNumber":2,"parameterNumberName":"U-component_of_CURRENTS"},"data":[0,0,0,0,0,0,0,0,0,0,0,0,0,0,0,0,0,0,0,0,0,0,0,0,0,0,0,0,0,0,0,0,0,0,0,0,0,0,0,0,0,0,0,0,0,0,0,0,0,0,0,0,0,0,0,0,0,0,0.3513,0.3515,0,0.3567,0.3567,0.3567,0.3544,0.3543,0.3543,0.3543,0.3644,0.3647,0.365,0,0,0,0,0,0,0,0,0,0,0,0,0,0.3356,0.3358,0.3513,0.3515,0.3516,0.3567,0.3567,0.3567,0.3544,0.3543,0.3543,0.3543,0.3643,0.3647,0.365,0,0,0,0,0,0,0,0,0,0,0,0,0,0.3409,0.3359,0.3513,0.3518,0.352,0.3567,0.3567,0.3567,0.3544,0.3543,0.3543,0.3542,0.3642,0.3646,0.3651,0.3691,0,0,0.3665,0.3667,0,0,0,0,0,0,0,0,0.3406,0.3413,0.3516,0.3518,0.352,0.3557,0.3549,0.3614,0.3544,0.3524,0.3543,0.3542,0.3627,0.3632,0.3629,0.3695,0.37,0.3665,0.3668,0.367,0.3671,0,0,0,0,0,0,0,0.3402,0.3411,0.3524,0.3518,0.3521,0.3507,0.3513,0.356,0.3571,0.3526,0.3527,0.3549,0.3626,0.3624,0.3631,0.3701,0.3665,0.3669,0.3672,0.3674,0.3986,0.3991,0,0,0,0,0,0,0.3419,0.3408,0.3523,0.3527,0.3472,0.3511,0.3518,0.3538,0.357,0.3576,0.355,0.3548,0.3617,0.3626,0.3635,0.3784,0.367,0.3674,0.3677,0.3981,0.3987,0.3993,0,0,0,0,0,0,0.3415,0.3428,0.3521,0.3476,0.3488,0.3516,0.3538,0.3539,0.3586,0.3589,0.3594,0.3601,0.3616,0.3628,0.3714,0.3784,0.3676,0.3681,0.3974,0.3983,0.399,0.4019,0,0,0,0,0,0,0.341,0.3426,0.345,0.3478,0.3492,0.3575,0.354,0.3541,0.3602,0.3601,0.3635,0.364,0.3617,0.3707,0.3718,0.3788,0.3684,0.3967,0.3978,0.3988,0.4011,0.4027,0.4041,0,0,0,0,0,0.3404,0.3431,0.345,0.3465,0.3522,0.3578,0.3584,0.3593,0.3606,0.3632,0.366,0.3641,0.3783,0.3714,0.3726,0.3799,0.3962,0.3975,0.3987,0.4004,0.4024,0.4041,0,0,0,0,0,0,0.3379,0.3433,0.3454,0.3499,0.3554,0.3579,0.3608,0.3635,0.3677,0.3685,0.3688,0.3696,0.3801,0.3821,0.3746,0.3934,0.3882,0.3897,0.3891,0.391,0.3925,0.3951,0.3688,0,0,0,0,0,0.3389,0.3424,0.3482,0.3527,0.3557,0.3601,0.3631,0.3649,0.3691,0.3709,0.375,0.3806,0.3858,0.3897,0.3944,0.4039,0.4033,0.4112,0.4127,0.4139,0.4179,0.4168,0.4182,0.4034,0.4034,0.4034,0,0,0.3398,0.3434,0.3456,0.3526,0.3564,0.3615,0.3615,0.368,0.3739,0.3718,0.3824,0.3859,0.39,0.3988,0.4043,0.4013,0.4191,0.4155,0.4163,0.4198,0.4182,0.4195,0.4207,0.4043,0.4041,0.404,0,0,0.342,0.3466,0.3498,0.3544,0.3621,0.3653,0.3694,0.3766,0.3813,0.3913,0.392,0.4007,0.4099,0.4133,0.416,0.431,0.4266,0.4347,0.4437,0.4424,0.4434,0.4442,0.4474,0.4484,0.4354,0.4354,0.4355,0,0.3417,0.3474,0.3521,0.3563,0.3607,0.3685,0.3734,0.3801,0.3901,0.3957,0.3962,0.4132,0.4168,0.427,0.4327,0.4339,0.433,0.4337,0.4433,0.4441,0.4449,0.4479,0.449,0.4357,0.4357,0.4357,0.4356,0,0.3471,0.3511,0.3542,0.3618,0.3673,0.3734,0.3829,0.3912,0.3994,0.4065,0.4215,0.427,0.437,0.4409,0.4412,0.4521,0.4498,0.4433,0.4356,0.4463,0.4492,0.4503,0.4361,0.436,0.436,0.4359,0,0,0.3474,0.3551,0.3569,0.3576,0.3704,0.3733,0.3867,0.3987,0.406,0.4207,0.4302,0.4457,0.4516,0.4561,0.459,0.4613,0.4673,0.4566,0.4564,0.4548,0.4671,0.4303,0.428,0.4585,0.4587,0.4589,0.4673,0,0.3502,0.3537,0.3607,0.3662,0.3681,0.3785,0.3889,0.4011,0.4131,0.4246,0.438,0.4483,0.4566,0.4597,0.4659,0.4678,0.4702,0.466,0.4618,0.462,0.4233,0.4279,0.409,0.4114,0.4683,0.4685,0.4686,0,0.3541,0.355,0.3593,0.363,0.3657,0.3728,0.3863,0.3965,0.4164,0.4253,0.4423,0.4511,0.469,0.4657,0.4815,0.4776,0.4755,0.4745,0.4744,0.4399,0.4268,0.4104,0.4112,0.4703,0.4702,0.4701,0.4699,0,0.3474,0.3533,0.355,0.3574,0.3661,0.3721,0.38,0.3986,0.4071,0.4267,0.4336,0.4555,0.4647,0.4711,0.4805,0.4791,0.4879,0.4831,0.4491,0.4468,0.4302,0.4255,0.4855,0.4855,0.4855,0.4854,0.4854,0,0.3448,0.3449,0.3517,0.3519,0.3555,0.3658,0.3758,0.386,0.4034,0.4132,0.4349,0.4426,0.4647,0.4742,0.48,0.4704,0.489,0.4521,0.4445,0.4308,0.4263,0.4768,0.4757,0.4857,0.4857,0.4856,0.4856,0,0.3344,0.3405,0.3387,0.347,0.3519,0.3535,0.3695,0.3768,0.3948,0.4071,0.4129,0.436,0.4468,0.4637,0.4717,0.4632,0.4593,0.4479,0.4322,0.4217,0.4209,0.42,0.4127,0.4114,0.4104,0.4095,0.4087,0,0.3263,0.3276,0.3323,0.3337,0.3383,0.346,0.3549,0.3719,0.3782,0.4006,0.4026,0.4179,0.4259,0.4281,0.4189,0.4169,0.433,0.3832,0.3715,0.4191,0.4128,0.4136,0.4141,0.3586,0.3575,0.3566,0.3559,0,0.3126,0.3177,0.3161,0.3196,0.3263,0.3307,0.3417,0.3439,0.3645,0.3757,0.3858,0.3935,0.3948,0.3788,0.366,0.3613,0.3826,0.3619,0.4204,0.3706,0.3659,0.3602,0.3632,0.3478,0.3486,0.3492,0.3497,0.35,0.3,0.297,0.3004,0.3033,0.3099,0.3128,0.3155,0.3232,0.3298,0.3374,0.3538,0.3537,0.3504,0.315,0.3062,0.2979,0.317,0.306,0.3101,0.3149,0.2976,0.29,0.2555,0.2558,0.256,0.2562,0.2564,0,0.28,0.286,0.2863,0.2862,0.2886,0.3013,0.3063,0.3054,0.3071,0.3067,0.3126,0.2805,0.2651,0.2677,0.2418,0.2281,0.2429,0.2204,0.2457,0.2534,0.2604,0.2416,0.1841,0.1839,0.1836,0.1834,0,0,0.2681,0.2653,0.2689,0.2678,0.275,0.2769,0.2806,0.2747,0.2701,0.2539,0.245,0.2504,0.2567,0.214,0.2076,0.1952,0.2254,0.189,0.2479,0.286,0.2927,0.3099,0.289,0,0,0,0,0]},{"header":{"parameterUnit":"m.s-1","parameterCategory":2,"la1":30.2991,"la2":30.254,"lo1":-89.0895,"lo2":-89.0444,"dy":0.0017,"dx":0.0017,"nx":28,"ny":28,"refTime":"2025-06-09T03:00:00:Z","depth":"2","parameterNumber":3,"parameterNumberName":"V-component_of_CURRENTS"},"data":[0,0,0,0,0,0,0,0,0,0,0,0,0,0,0,0,0,0,0,0,0,0,0,0,0,0,0,0,0,0,0,0,0,0,0,0,0,0,0,0,0,0,0,0,0,0,0,0,0,0,0,0,0,0,0,0,0,0,-0.0182,-0.0184,0,-0.0315,-0.0317,-0.0318,-0.0374,-0.0374,-0.0373,-0.0373,-0.0424,-0.0425,-0.0427,0,0,0,0,0,0,0,0,0,0,0,0,0,-0.013,-0.0129,-0.0182,-0.0184,-0.0185,-0.0315,-0.0317,-0.0319,-0.0374,-0.0374,-0.0373,-0.0373,-0.0423,-0.0425,-0.0427,0,0,0,0,0,0,0,0,0,0,0,0,0,-0.0197,-0.0129,-0.0182,-0.0228,-0.0233,-0.0315,-0.0317,-0.0319,-0.0374,-0.0374,-0.0373,-0.0373,-0.0422,-0.0425,-0.0427,-0.0453,0,0,-0.0435,-0.0436,0,0,0,0,0,0,0,0,-0.0193,-0.0199,-0.022,-0.0225,-0.0231,-0.0327,-0.0317,-0.036,-0.0374,-0.0321,-0.0373,-0.0372,-0.0384,-0.0389,-0.0418,-0.0455,-0.0457,-0.0435,-0.0437,-0.0438,-0.0438,0,0,0,0,0,0,0,-0.0188,-0.0194,-0.0236,-0.0221,-0.0228,-0.0295,-0.0303,-0.0327,-0.0352,-0.0326,-0.033,-0.0344,-0.0386,-0.0415,-0.0419,-0.0458,-0.0435,-0.0437,-0.0439,-0.044,-0.0323,-0.0318,0,0,0,0,0,0,-0.0162,-0.0189,-0.0231,-0.0239,-0.021,-0.0295,-0.0304,-0.0297,-0.0354,-0.0363,-0.0344,-0.0346,-0.0411,-0.0416,-0.0421,-0.0317,-0.0438,-0.044,-0.0441,-0.0327,-0.0322,-0.0317,0,0,0,0,0,0,-0.016,-0.0164,-0.0226,-0.0218,-0.0231,-0.0296,-0.0288,-0.03,-0.0285,-0.0369,-0.0376,-0.0312,-0.0411,-0.0417,-0.039,-0.0325,-0.0441,-0.0443,-0.0333,-0.0326,-0.0319,-0.0198,0,0,0,0,0,0,-0.0158,-0.0162,-0.0141,-0.0215,-0.023,-0.0246,-0.0289,-0.0303,-0.0297,-0.0299,-0.0344,-0.0352,-0.0411,-0.0385,-0.0392,-0.033,-0.0445,-0.0339,-0.0329,-0.0321,-0.0207,-0.0187,-0.017,0,0,0,0,0,-0.0155,-0.0128,-0.0138,-0.0144,-0.02,-0.0245,-0.0257,-0.0305,-0.0295,-0.0287,-0.0296,-0.0348,-0.0334,-0.0385,-0.0394,-0.0331,-0.0343,-0.0332,-0.0322,-0.0216,-0.0191,-0.0171,0,0,0,0,0,0,-0.0085,-0.0134,-0.0146,-0.0131,-0.017,-0.0253,-0.0249,-0.0268,-0.0273,-0.0255,-0.0315,-0.0323,-0.0274,-0.0302,-0.0356,-0.0261,-0.0336,-0.0327,-0.0252,-0.0229,-0.0211,-0.0163,-0.0447,0,0,0,0,0,-0.0061,-0.0058,-0.0112,-0.0099,-0.0105,-0.016,-0.0177,-0.0204,-0.0228,-0.0229,-0.0244,-0.0243,-0.0246,-0.0236,-0.0252,-0.0208,-0.0264,-0.0158,-0.014,-0.0124,-0.0083,-0.0165,-0.0152,-0.0283,-0.0283,-0.0283,0,0,-0.0038,-0.0058,-0.006,-0.0085,-0.0114,-0.011,-0.0167,-0.0172,-0.0145,-0.0231,-0.0163,-0.0189,-0.0219,-0.0178,-0.0154,-0.0188,-0.0105,-0.0111,-0.0099,-0.0065,-0.0153,-0.0141,-0.0131,-0.0276,-0.0277,-0.0278,0,0,-0.0008,0.0009,0.0009,-0.0003,-0.0031,-0.0051,-0.003,-0.0065,-0.0048,-0.0014,-0.005,-0.0028,-0.0023,-0.0037,-0.0045,0.0079,-0.0015,0.0101,0.0234,0.0154,0.0162,0.0169,0.0139,0.0142,0.0119,0.0119,0.0119,0,0.0021,0.0029,0.0003,0.001,0.002,-0.0001,0.0021,0.0032,0.0021,0.0053,0.0037,0.0081,0.0041,0.0097,0.0148,0.0116,0.0075,0.0134,0.0171,0.0176,0.018,0.0148,0.0149,0.0126,0.0125,0.0125,0.0124,0,0.004,0.0062,0.0075,0.0089,0.0102,0.0122,0.0136,0.0184,0.022,0.022,0.0301,0.0262,0.0293,0.0292,0.0255,0.0309,0.0273,0.0182,0.0095,0.0199,0.0161,0.016,0.0136,0.0134,0.0132,0.013,0,0,0.0072,0.0081,0.0092,0.0108,0.0155,0.0158,0.0257,0.031,0.0391,0.0413,0.0501,0.0518,0.0523,0.0523,0.0492,0.0449,0.0437,0.0363,0.0355,0.0306,0.0305,0.0147,0.0129,0.0336,0.0336,0.0336,0.0271,0,0.01,0.0119,0.0137,0.0199,0.0221,0.0268,0.0361,0.042,0.0489,0.0576,0.058,0.0638,0.0607,0.063,0.06,0.0479,0.044,0.0467,0.024,0.0236,0.0054,0.0124,0.0184,0.0119,0.027,0.0269,0.0269,0,0.0119,0.0135,0.0186,0.0255,0.0277,0.0335,0.0488,0.0565,0.0688,0.0743,0.0829,0.0823,0.0859,0.0764,0.0662,0.0684,0.0536,0.0419,0.041,0.0222,0.0074,0.0039,0.011,0.0266,0.0266,0.0266,0.0266,0,0.0135,0.0176,0.0225,0.0248,0.0332,0.0398,0.0478,0.062,0.0714,0.0861,0.0932,0.0971,0.098,0.0844,0.0674,0.0657,0.0497,0.0408,0.0136,0.0125,0.0115,0.01,0.0286,0.0287,0.0287,0.0287,0.0287,0,0.016,0.0195,0.0235,0.0265,0.0363,0.0428,0.0585,0.068,0.0834,0.0968,0.1033,0.1104,0.0987,0.0894,0.0721,0.0458,0.0528,0.019,0.0093,0.0164,0.0154,0.0226,0.022,0.0284,0.0285,0.0285,0.0286,0,0.0161,0.0188,0.0234,0.0323,0.0369,0.0445,0.0621,0.0748,0.0895,0.1072,0.1117,0.1177,0.107,0.0925,0.0673,0.0485,0.0245,0.0108,0.0231,0.0147,-0.0072,-0.0069,-0.0172,-0.0179,-0.0184,-0.0188,-0.0192,0,0.015,0.0182,0.0268,0.0326,0.0373,0.0501,0.0629,0.0779,0.0912,0.1108,0.118,0.1138,0.1155,0.0788,0.0445,0.0133,0.0104,-0.0098,-0.0156,-0.0036,-0.012,-0.011,-0.0101,-0.0083,-0.0086,-0.0088,-0.009,0,0.0149,0.019,0.0231,0.0358,0.0472,0.06,0.0767,0.0865,0.1078,0.1241,0.1386,0.1402,0.1073,0.076,0.0282,0.0063,-0.003,-0.0164,-0.0061,-0.0017,0.0029,-0.0048,-0.0038,-0.0108,-0.0106,-0.0105,-0.0104,-0.0103,0.0149,0.0185,0.0275,0.0403,0.0537,0.0721,0.087,0.1047,0.1272,0.1509,0.1466,0.1498,0.1087,0.0466,0.0129,-0.0226,-0.0254,-0.0381,-0.0365,-0.035,-0.0369,-0.034,-0.0544,-0.0544,-0.0545,-0.0545,-0.0546,0,0.0159,0.0238,0.0338,0.0505,0.0682,0.0755,0.0999,0.1177,0.1472,0.1549,0.1675,0.1298,0.0928,0.0509,-0.0043,-0.0416,-0.0332,-0.0506,-0.0305,-0.0289,-0.0274,-0.028,-0.0436,-0.0436,-0.0436,-0.0436,0,0,0.0175,0.028,0.0355,0.063,0.0776,0.1039,0.1204,0.1444,0.1554,0.1668,0.1628,0.1464,0.0955,0.055,0.0111,-0.0145,-0.0119,-0.0184,-0.0245,0.0058,0.008,-0.0194,-0.0188,0,0,0,0,0]}],[{"header":{"parameterUnit":"m.s-1","parameterCategory":2,"la1":30.2991,"la2":30.254,"lo1":-89.0895,"lo2":-89.0444,"dy":0.0017,"dx":0.0017,"nx":28,"ny":28,"refTime":"2025-06-09T03:00:00:Z","depth":"4","parameterNumber":2,"parameterNumberName":"U-component_of_CURRENTS"},"data":[0,0,0,0,0,0,0,0,0,0,0,0,0,0,0,0,0,0,0,0,0,0,0,0,0,0,0,0,0,0,0,0,0,0,0,0,0,0,0,0,0,0,0,0,0,0,0,0,0,0,0,0,0,0,0,0,0,0,0.0526,0.0527,0,0.0592,0.0592,0.0592,0.0644,0.0645,0.0646,0.0648,0.0728,0.0729,0.073,0,0,0,0,0,0,0,0,0,0,0,0,0,0.0399,0.0401,0.0525,0.0527,0.0529,0.0592,0.0592,0.0592,0.0644,0.0645,0.0647,0.0648,0.0728,0.0729,0.073,0,0,0,0,0,0,0,0,0,0,0,0,0,0.0451,0.0402,0.0525,0.0568,0.0573,0.0592,0.0592,0.0592,0.0643,0.0645,0.0647,0.0649,0.0727,0.0729,0.073,0.0702,0,0,0.0735,0.0735,0,0,0,0,0,0,0,0,0.0448,0.0455,0.056,0.0565,0.0571,0.0619,0.0578,0.0633,0.0643,0.0608,0.0648,0.065,0.0697,0.0701,0.0697,0.0706,0.0709,0.0735,0.0736,0.0736,0.0737,0,0,0,0,0,0,0,0.0444,0.0452,0.0543,0.0562,0.0569,0.057,0.0579,0.0587,0.0635,0.0611,0.0617,0.0637,0.0699,0.0696,0.07,0.071,0.0735,0.0736,0.0737,0.0738,0.0823,0.0824,0,0,0,0,0,0,0.0453,0.0449,0.0542,0.0546,0.0522,0.0571,0.0581,0.0595,0.0635,0.0645,0.0635,0.0639,0.0692,0.0698,0.0703,0.0807,0.0736,0.0738,0.0739,0.0822,0.0823,0.0825,0,0,0,0,0,0,0.045,0.0461,0.0539,0.0506,0.0517,0.0573,0.0587,0.0595,0.0633,0.0655,0.0664,0.0671,0.0694,0.0701,0.0751,0.0805,0.0738,0.074,0.082,0.0822,0.0824,0.0928,0,0,0,0,0,0,0.0446,0.0459,0.0479,0.0506,0.052,0.0572,0.0587,0.0596,0.0644,0.0651,0.0687,0.0694,0.0696,0.0749,0.0752,0.0806,0.0741,0.0818,0.0821,0.0823,0.0923,0.0933,0.0942,0,0,0,0,0,0.0441,0.0465,0.0479,0.0492,0.0544,0.0573,0.0579,0.0619,0.0645,0.0659,0.0696,0.0695,0.0768,0.0751,0.0755,0.0811,0.0817,0.082,0.0823,0.0918,0.0931,0.0942,0,0,0,0,0,0,0.0419,0.0474,0.049,0.053,0.056,0.0586,0.0613,0.0637,0.0674,0.0696,0.071,0.0719,0.0781,0.0773,0.0754,0.084,0.0793,0.0797,0.0864,0.0876,0.0886,0.0868,0.0742,0,0,0,0,0,0.0424,0.045,0.0499,0.0523,0.0551,0.0585,0.0609,0.0637,0.0672,0.0692,0.0728,0.076,0.0786,0.0816,0.0829,0.0876,0.0873,0.0913,0.0923,0.0932,0.0918,0.1014,0.1032,0.0835,0.0835,0.0835,0,0,0.0427,0.0452,0.0474,0.052,0.0549,0.0589,0.0603,0.0651,0.0686,0.0693,0.0766,0.0794,0.0803,0.0859,0.0887,0.0871,0.0977,0.0936,0.0943,0.0925,0.1019,0.1039,0.1056,0.0837,0.0837,0.0836,0,0,0.0424,0.0467,0.0491,0.0527,0.0584,0.0606,0.0632,0.0691,0.0726,0.0785,0.0806,0.0861,0.0911,0.093,0.0942,0.1007,0.1019,0.1033,0.1084,0.1179,0.1196,0.1212,0.1195,0.1208,0.1049,0.1049,0.105,0,0.0433,0.0461,0.05,0.0535,0.0579,0.0623,0.0668,0.0698,0.0767,0.0804,0.0824,0.092,0.0934,0.0995,0.1028,0.103,0.1065,0.1045,0.1195,0.121,0.1225,0.1204,0.1217,0.1055,0.1054,0.1054,0.1053,0,0.0444,0.0485,0.0506,0.0564,0.0611,0.0655,0.0719,0.0772,0.0831,0.0867,0.0959,0.0989,0.1055,0.1074,0.1075,0.1186,0.1167,0.1194,0.1171,0.1251,0.1222,0.1235,0.1062,0.106,0.1059,0.1058,0,0,0.0427,0.0502,0.0517,0.0552,0.064,0.0677,0.0749,0.0821,0.0884,0.0955,0.1036,0.1092,0.1142,0.1156,0.1186,0.1259,0.1374,0.129,0.1292,0.1279,0.154,0.1418,0.1418,0.1477,0.148,0.1483,0.1465,0,0.043,0.049,0.0536,0.061,0.0654,0.0733,0.0801,0.0877,0.0945,0.1033,0.1079,0.1171,0.1165,0.1241,0.131,0.1331,0.142,0.1371,0.1455,0.1454,0.1347,0.1434,0.1495,0.1474,0.1477,0.1479,0.148,0,0.0432,0.0471,0.0547,0.0645,0.0682,0.0744,0.0876,0.0953,0.1065,0.1123,0.1214,0.1266,0.133,0.1368,0.1444,0.1432,0.1515,0.1537,0.1539,0.1396,0.1358,0.1385,0.1502,0.15,0.1498,0.1497,0.1496,0,0.0387,0.0482,0.0541,0.058,0.0702,0.0771,0.0866,0.0993,0.1082,0.1216,0.1281,0.1355,0.1433,0.1504,0.1519,0.1537,0.16,0.1625,0.1585,0.1573,0.1639,0.1623,0.1782,0.1782,0.1782,0.1782,0.1782,0,0.0369,0.0413,0.0536,0.0569,0.0674,0.0788,0.0922,0.1017,0.1174,0.1259,0.1358,0.1409,0.1509,0.1539,0.1546,0.1538,0.1629,0.1587,0.1587,0.1672,0.1661,0.1644,0.1628,0.1781,0.1782,0.1782,0.1782,0,0.0307,0.0382,0.0445,0.0588,0.0652,0.0747,0.0964,0.1046,0.1208,0.1322,0.1383,0.1495,0.1513,0.1534,0.1622,0.1579,0.1574,0.1599,0.16,0.16,0.1468,0.1458,0.1518,0.1514,0.1511,0.1508,0.1506,0,0.0288,0.031,0.0451,0.0519,0.0593,0.0755,0.0856,0.105,0.1126,0.1324,0.1342,0.147,0.1506,0.1456,0.1507,0.1484,0.1535,0.151,0.157,0.1461,0.1455,0.1449,0.1444,0.1501,0.15,0.1499,0.1498,0,0.0235,0.028,0.0334,0.0461,0.0571,0.0696,0.0852,0.0904,0.1102,0.1232,0.1311,0.1367,0.1399,0.14,0.1429,0.1417,0.1471,0.1477,0.1486,0.1542,0.1441,0.1436,0.1435,0.1487,0.1489,0.149,0.149,0,0.0203,0.0215,0.029,0.0398,0.0533,0.0627,0.0712,0.0823,0.0945,0.1157,0.1158,0.1258,0.1373,0.1368,0.1337,0.1337,0.1363,0.1351,0.1367,0.138,0.1347,0.1199,0.1177,0,0,0,0,0,0.0189,0.018,0.024,0.035,0.0474,0.0558,0.0704,0.078,0.0931,0.0965,0.1092,0.1113,0.1173,0.121,0.119,0.126,0.1334,0.123,0.132,0.1425,0.1438,0.1413,0,0,0,0,0,0,0.0173,0.0202,0.0193,0.0291,0.0369,0.0492,0.0581,0.0673,0.0713,0.0873,0.09,0.1049,0.1093,0.1171,0.1168,0.1181,0.1219,0.1307,0.1304,0.1417,0.1429,0.1439,0.1418,0,0,0,0,0]},{"header":{"parameterUnit":"m.s-1","parameterCategory":2,"la1":30.2991,"la2":30.254,"lo1":-89.0895,"lo2":-89.0444,"dy":0.0017,"dx":0.0017,"nx":28,"ny":28,"refTime":"2025-06-09T03:00:00:Z","depth":"4","parameterNumber":3,"parameterNumberName":"V-component_of_CURRENTS"},"data":[0,0,0,0,0,0,0,0,0,0,0,0,0,0,0,0,0,0,0,0,0,0,0,0,0,0,0,0,0,0,0,0,0,0,0,0,0,0,0,0,0,0,0,0,0,0,0,0,0,0,0,0,0,0,0,0,0,0,0.014,0.0139,0,0.0036,0.0035,0.0034,0.0005,0.0006,0.0006,0.0007,-0.0142,-0.0147,-0.0151,0,0,0,0,0,0,0,0,0,0,0,0,0,0.0233,0.0232,0.0141,0.0139,0.0138,0.0037,0.0035,0.0034,0.0005,0.0006,0.0007,0.0007,-0.0141,-0.0146,-0.0152,0,0,0,0,0,0,0,0,0,0,0,0,0,0.0167,0.0232,0.0141,0.0112,0.0109,0.0037,0.0035,0.0033,0.0005,0.0006,0.0007,0.0008,-0.0139,-0.0146,-0.0152,-0.0216,0,0,-0.0173,-0.0176,0,0,0,0,0,0,0,0,0.0171,0.0163,0.0118,0.0114,0.011,0.0036,0.0013,-0.0052,0.0005,0.0043,0.0007,0.0008,-0.0087,-0.0098,-0.0121,-0.0223,-0.0229,-0.0174,-0.0178,-0.0181,-0.0183,0,0,0,0,0,0,0,0.0176,0.0167,0.0098,0.0116,0.0112,0.0077,0.0069,0.0,-0.0028,0.004,0.0038,0.0028,-0.0089,-0.0114,-0.0125,-0.0231,-0.0174,-0.018,-0.0184,-0.0187,-0.0433,-0.0435,0,0,0,0,0,0,0.0193,0.0172,0.0102,0.0095,0.0145,0.0075,0.0066,0.0058,-0.0026,-0.0038,0.0027,0.0027,-0.0103,-0.0116,-0.013,-0.0239,-0.0181,-0.0188,-0.0192,-0.043,-0.0433,-0.0436,0,0,0,0,0,0,0.0196,0.0188,0.0106,0.0132,0.0119,0.0073,0.0063,0.0055,0.003,-0.0036,-0.0048,0.0011,-0.0102,-0.012,-0.0212,-0.0244,-0.0191,-0.0197,-0.0428,-0.0431,-0.0435,-0.0438,0,0,0,0,0,0,0.0199,0.019,0.0184,0.0133,0.0119,0.0064,0.0062,0.0052,0.0023,0.0022,-0.0054,-0.0066,-0.0103,-0.0202,-0.0219,-0.0252,-0.0203,-0.0425,-0.0429,-0.0434,-0.0435,-0.0442,-0.0447,0,0,0,0,0,0.0202,0.0192,0.0184,0.0176,0.0114,0.0063,0.0052,0.0022,0.0022,0.0005,-0.0059,-0.0064,-0.0242,-0.021,-0.023,-0.0265,-0.0422,-0.0428,-0.0433,-0.0433,-0.044,-0.0447,0,0,0,0,0,0,0.0224,0.0186,0.0177,0.0155,0.0114,0.0059,0.0038,0.0019,-0.0044,-0.0049,-0.0103,-0.0122,-0.0216,-0.0246,-0.0209,-0.0351,-0.033,-0.034,-0.0323,-0.0331,-0.0337,-0.0302,-0.0208,0,0,0,0,0,0.0228,0.0218,0.0168,0.0152,0.013,0.0084,0.0059,0.0036,-0.0022,-0.0046,-0.0104,-0.0175,-0.0256,-0.0294,-0.0367,-0.0447,-0.0447,-0.0482,-0.0488,-0.0492,-0.048,-0.0507,-0.0513,-0.0454,-0.0453,-0.0453,0,0,0.0237,0.0211,0.0207,0.0157,0.0122,0.0089,0.0071,0.003,0.0001,-0.0057,-0.0126,-0.0204,-0.0285,-0.0378,-0.042,-0.0403,-0.0514,-0.0499,-0.0502,-0.0487,-0.0513,-0.0519,-0.0523,-0.0457,-0.0457,-0.0456,0,0,0.0244,0.0219,0.0211,0.0177,0.0125,0.0089,0.008,0.0014,-0.0017,-0.0098,-0.0155,-0.025,-0.0357,-0.0429,-0.0476,-0.0561,-0.055,-0.0584,-0.058,-0.0608,-0.0612,-0.0615,-0.0629,-0.0633,-0.0579,-0.0579,-0.0579,0,0.0255,0.0237,0.0198,0.0174,0.015,0.0094,0.0073,0.0024,-0.0063,-0.0101,-0.0116,-0.0309,-0.0381,-0.0499,-0.0531,-0.0572,-0.0572,-0.0542,-0.0611,-0.0615,-0.0618,-0.0631,-0.0635,-0.058,-0.058,-0.058,-0.058,0,0.0252,0.0236,0.0223,0.0182,0.0147,0.0116,0.0052,0.0003,-0.0045,-0.0098,-0.0224,-0.0341,-0.0443,-0.0498,-0.0542,-0.0622,-0.061,-0.0616,-0.0579,-0.0623,-0.0635,-0.064,-0.0581,-0.0581,-0.0581,-0.0581,0,0,0.0282,0.0234,0.0234,0.0219,0.0151,0.0122,0.0066,-0.0006,-0.0042,-0.0151,-0.0215,-0.0383,-0.044,-0.0499,-0.0583,-0.0622,-0.0664,-0.0622,-0.0623,-0.061,-0.0706,-0.0659,-0.066,-0.0669,-0.0669,-0.067,-0.0706,0,0.0291,0.0274,0.0239,0.0213,0.019,0.0128,0.0085,0.0012,-0.0063,-0.0144,-0.0275,-0.0374,-0.0441,-0.05,-0.0557,-0.0653,-0.0676,-0.0653,-0.0687,-0.0688,-0.062,-0.0664,-0.0673,-0.071,-0.0711,-0.0711,-0.0712,0,0.0291,0.0283,0.0275,0.023,0.0215,0.0195,0.0119,0.0072,-0.0049,-0.0111,-0.0229,-0.0326,-0.046,-0.0482,-0.0629,-0.0606,-0.0643,-0.0696,-0.0699,-0.065,-0.0649,-0.066,-0.072,-0.072,-0.0719,-0.0718,-0.0718,0,0.0326,0.0298,0.0302,0.0288,0.0231,0.0219,0.0185,0.0087,0.0047,-0.0083,-0.0132,-0.0298,-0.0381,-0.0471,-0.0602,-0.0605,-0.0724,-0.0739,-0.0727,-0.0724,-0.0749,-0.0745,-0.0786,-0.0786,-0.0786,-0.0786,-0.0786,0,0.0333,0.0329,0.0329,0.0327,0.0327,0.0272,0.0248,0.0183,0.0099,0.0046,-0.0102,-0.0183,-0.0373,-0.048,-0.0579,-0.0673,-0.07,-0.0725,-0.0731,-0.0754,-0.075,-0.0752,-0.0748,-0.0787,-0.0787,-0.0787,-0.0787,0,0.0343,0.0347,0.0348,0.0337,0.0343,0.0341,0.0314,0.0281,0.0206,0.0134,0.0098,-0.0091,-0.0237,-0.0405,-0.0564,-0.0629,-0.073,-0.0736,-0.0741,-0.0747,-0.0715,-0.0711,-0.0737,-0.0735,-0.0734,-0.0733,-0.0733,0,0.0339,0.0349,0.0377,0.0399,0.04,0.0406,0.0398,0.0339,0.0301,0.0185,0.0141,-0.0005,-0.014,-0.0336,-0.0507,-0.0673,-0.0683,-0.0721,-0.0733,-0.0707,-0.0711,-0.0709,-0.0706,-0.0731,-0.0731,-0.073,-0.073,0,0.0328,0.0351,0.0357,0.0417,0.0438,0.0451,0.0442,0.0428,0.0346,0.03,0.0186,0.0051,-0.0107,-0.0307,-0.0426,-0.055,-0.0708,-0.071,-0.0713,-0.0725,-0.07,-0.0705,-0.0704,-0.0726,-0.0727,-0.0727,-0.0727,0,0.0323,0.0332,0.0366,0.0406,0.046,0.0477,0.0463,0.0424,0.0393,0.028,0.0252,0.0064,-0.0049,-0.0239,-0.0363,-0.0477,-0.0506,-0.0532,-0.0545,-0.0551,-0.0493,-0.0434,-0.0381,0,0,0,0,0,0.0316,0.0321,0.0352,0.0391,0.0452,0.0488,0.048,0.0451,0.0401,0.0344,0.0305,0.0163,-0.0043,-0.0162,-0.0262,-0.0354,-0.0537,-0.0475,-0.0575,-0.0704,-0.0709,-0.067,0,0,0,0,0,0,0.031,0.033,0.0333,0.0385,0.0432,0.0473,0.0484,0.0437,0.0397,0.0345,0.0229,0.018,-0.0035,0.0038,-0.0246,-0.0288,-0.0357,-0.0576,-0.0577,-0.0702,-0.0706,-0.071,-0.0671,0,0,0,0,0]}]]